Regional Weather Roundup
Issued by NWS

Home | Current Version | Previous Version | Graphics & Text | Print | Product List | Glossary On
Versions: 1 2 3 4 5 6 7 8 9 10 11 12 13 14 15 16 17 18 19 20 21 22 23 24 25 26 27 28 29 30 31 32 33 34 35 36 37 38 39 40 41 42 43 44 45 46 47 48 49 50
000
ASUS45 KBOU 041007
RWRCO

WEATHER ROUNDUP FOR COLORADO
NATIONAL WEATHER SERVICE DENVER/BOULDER CO
400 AM MDT FRI SEP 04 2015

NOTE: "FAIR" INDICATES FEW OR NO CLOUDS BELOW 12000 FEET WITH NO
SIGNIFICANT WEATHER AND/OR OBSTRUCTIONS TO VISIBILITY.

COZ001>005-013-030-031-041100-
...NORTHWEST COLORADO...

CITY           SKY/WX    TMP DP  RH WIND       PRES   REMARKS
CRAIG          CLEAR     54  45  71 SE8       30.06S
HAYDEN         CLEAR     52  41  66 E13       30.09S
MEEKER         CLEAR     51  44  77 E7        30.07S
MOUNT WERNER   NOT AVBL
STEAMBOAT SPGS CLEAR     44  42  91 CALM      30.13S
WALDEN         CLEAR     37  36  93 SE7       30.20S
$$

COZ006>008-011-041100-
...WEST CENTRAL VALLEYS...

CITY           SKY/WX    TMP DP  RH WIND       PRES   REMARKS
GRAND JUNCTION CLEAR     62  51  67 SE17      29.95S
MONTROSE       CLOUDY    59  49  69 SE6       30.08S
EAGLE          CLEAR     46  45  93 NE3       30.20R
RIFLE          PTCLDY    54  49  83 CALM      30.05R
DELTA          MOCLDY    60  50  69 NE8       30.04S
NUCLA          CLOUDY    61  50  67 N3        30.13R
$$

COZ017>023-064>068-041100-
...SOUTHWEST COLORADO...

CITY           SKY/WX    TMP DP  RH WIND       PRES   REMARKS
DURANGO        CLOUDY    56  42  59 CALM      30.15S
CORTEZ         PTCLDY    57  43  59 NE8       30.09S
PAGOSA SPRINGS CLOUDY    52  41  66 CALM      30.23S
TELLURIDE      MOCLDY    52  41  65 SE3       30.30F
WOLF CREEK PAS NOT AVBL
$$

COZ009-010-012-014-032>034-037-058>063-041100-
...CENTRAL COLORADO...

CITY           SKY/WX    TMP DP  RH WIND       PRES   REMARKS
ASPEN          CLEAR     47  41  80 SW6       30.20S
BUENA VISTA    PTCLDY    46  42  84 N5        30.23F
COPPER MTN     CLEAR     46  32  57 SW9       30.47S
BERTHOUD PASS  FAIR      37  28  70 NW15G23   30.50R
COTTONWOOD PAS PTCLDY    54  37  54 CALM      30.33F
GUNNISON       PTCLDY    46  41  81 N5        30.26F
KREMMLING      FOG       41  37  87 CALM      30.24R VSB 1/2
LEADVILLE      PTCLDY    38  37  97 E3        30.33S
MONARCH PASS   MOCLDY    43  37  81 W17       30.57F
SALIDA         PTCLDY    53  44  71 N3        30.27S
SUNLIGHT       CLEAR     45  41  87 CALM      30.40S
WILKERSON PASS PTCLDY    45  36  70 W10G21    30.43S
$$

COZ069>075-041100-
...SAN LUIS VALLEY/SANGRE DE CRISTO MOUNTAINS...

CITY           SKY/WX    TMP DP  RH WIND       PRES   REMARKS
ALAMOSA        MOCLDY    44  41  89 SE3       30.21S
LA VETA PASS   CLEAR     46  37  71 MISG      30.34F
SAGUACHE       PTCLDY    46  43  87 NW8       30.24S
$$

COZ035-036-038>040-041100-
...NORTHERN COLORADO FRONT RANGE...

CITY           SKY/WX    TMP DP  RH WIND       PRES   REMARKS
DENVER INTL AP PTCLDY    56  50  80 S12       29.98F
DMNS CITY PARK   N/A     59  51  73 SW2G12    29.99R
AURORA         PTCLDY    56  51  82 S5        30.01S
FRONT RANGE AP CLEAR     54  50  87 S7        30.00F
ERIE MUNI ARPT CLEAR     51  48  89 CALM      29.97F
BOULDER MUN AP CLEAR     54  48  82 CALM      29.97F
CENTENNIAL     PTCLDY    57  50  77 S6        30.02R
BROOMFIELD     CLEAR     59  45  58 NW3       30.00S
FORT COLLINS   CLEAR     54  46  76 CALM      29.98S
LONGMONT       CLEAR     52  46  82 W3        29.99S
$$

COZ041-046-047-076>085-087-088-041100-
...PIKES PEAK/PALMER DIVIDE AND SOUTHERN FOOTHILLS...

CITY           SKY/WX    TMP DP  RH WIND       PRES   REMARKS
COLO. SPRINGS  PTCLDY    59  48  67 N6        30.07S
A. F. ACADEMY  PTCLDY    57  46  65 NE3       30.08S
ELLICOTT       PTCLDY   N/A N/A N/A CALM      30.04F
FALCON         PTCLDY    58  44  58 MISG      30.11F
FORT CARSON    PTCLDY    56  49  77 N8        30.03S
LIMON          MOCLDY    55  52  89 NW7       30.00F
MONUMENT HILL  CLEAR     55  43  62 S6        30.11S
TRINIDAD       CLEAR     57  46  66 W9        30.05S
$$

COZ042>045-048>051-090-091-041100-
...NORTHEAST COLORADO...

CITY           SKY/WX    TMP DP  RH WIND       PRES   REMARKS
GREELEY ARPT   CLEAR     50  46  87 NW3       29.96S
AKRON          CLEAR     59  53  80 W13       29.93S
BURLINGTON     PTCLDY    61  52  72 W6        29.91R
WRAY           CLOUDY    60  56  88 W6        29.87S
STERLING       CLEAR     54  52  94 SW6       29.89S
HOLYOKE        MOCLDY    63  55  77 W9        29.87S
FORT MORGAN    CLEAR     51  48  89 W7        29.95S
$$

COZ086-089-092>099-041100-
...SOUTHEAST COLORADO...

CITY           SKY/WX    TMP DP  RH WIND       PRES   REMARKS
PUEBLO         PTCLDY    57  52  83 NW6       29.97S
LA JUNTA       CLEAR     65  53  65 NW8       29.93S
LAMAR          CLEAR     61  53  75 SW6       29.89R
SPRINGFIELD      N/A     59  49  69 CALM      29.95R
$$




USA.gov is the U.S. government's official web portal to all federal, state and local government web resources and services.